Regional Weather Roundup
Issued by NWS

Home | Current Version | Previous Version | Graphics & Text | Print | Product List | Glossary Off
Versions: 1 2 3 4 5 6 7 8 9 10 11 12 13 14 15 16 17 18 19 20 21 22 23 24 25 26 27 28 29 30 31 32 33 34 35 36 37 38 39 40 41 42 43 44 45 46 47 48 49 50

801
ASUS43 KMKX 280000
RWRWI

WISCONSIN REGIONAL WEATHER ROUNDUP
NATIONAL WEATHER SERVICE MILWAUKEE/SULLIVAN WI
600 PM CST MON FEB 27 2017

NOTE: "FAIR" INDICATES FEW OR NO CLOUDS BELOW 12,000 FEET WITH NO
SIGNIFICANT WEATHER AND/OR OBSTRUCTIONS TO VISIBILITY.

WIZ001-002-006>008-014>016-023>028-280100-
NORTHWEST WISCONSIN

CITY           SKY/WX    TMP DP  RH WIND       PRES   REMARKS
SUPERIOR ARPT  CLOUDY    29  26  88 E5        29.92R WCI  24
ASHLAND        CLOUDY    29  24  82 NE7       29.93S WCI  22
6HR MIN TEMP:  28; 6HR MAX TEMP:  40;

HAYWARD        CLOUDY    36  16  44 S7        29.91R WCI  30
6HR MIN TEMP:  36; 6HR MAX TEMP:  45;

SIREN          CLOUDY    39  18  41 S9        29.89S WCI  33
CUMBERLAND     CLOUDY    34  21  60 SE9       29.91S WCI  26
RICE LAKE      PTCLDY    37  21  51 SE8       29.94S WCI  31
CHETEK         MOCLDY    37  21  52 SE5       29.93S WCI  34
LADYSMITH      CLEAR     38  20  49 S5        29.95S WCI  34
EAU CLAIRE     NOT AVBL
MENOMONIE      CLOUDY    38  23  54 E5        29.93S WCI  34
NEW RICHMOND   PTCLDY    38  20  49 S10       29.91S WCI  30
OSCEOLA        MOCLDY    38  20  48 S9        29.93R WCI  32
$$

WIZ003>005-009-010-017-018-280100-
NORTH CENTRAL WISCONSIN

CITY           SKY/WX    TMP DP  RH WIND       PRES   REMARKS
MANITOWISH WTR CLEAR     35  15  43 S7        29.92S WCI  30
ARBOR VITAE    CLEAR     37  19  49 S8          N/A  WCI  30
WOODRUFF       CLEAR     37  19  49 S8          N/A  WCI  30
RHINELANDER    CLOUDY    36  17  46 S3        29.96S
6HR MIN TEMP:  36; 6HR MAX TEMP:  40;

EAGLE RIVER    PTCLDY    36  14  40 S5        29.94S WCI  32
LAND O LAKES   PTCLDY    36  17  45 S3        29.95S
PHILLIPS       CLOUDY    37  17  44 S6        29.93S WCI  32
TOMAHAWK       CLOUDY    33  19  54 CALM      29.97R
MEDFORD        CLOUDY    32  20  61 S5        29.95S WCI  28
MERRILL        NOT AVBL
$$

WIZ029-030-035-036-043>047-280100-
CENTRAL WISCONSIN

CITY           SKY/WX    TMP DP  RH WIND       PRES   REMARKS
WAUSAU         CLEAR     38  19  46 SE6       29.97S WCI  33
6HR MIN TEMP:  37; 6HR MAX TEMP:  40;

MOSINEE        NOT AVBL
MARSHFIELD     CLEAR     35  21  56 S8        29.96S WCI  29
6HR MIN TEMP:  35; 6HR MAX TEMP:  42;

STEVENS POINT  CLEAR     37  26  62 S7        30.00S WCI  32
WAUPACA        CLEAR     40  29  65 SE5       30.03S
WAUTOMA        CLEAR     38  30  73 CALM      30.03R
6HR MIN TEMP:  38; 6HR MAX TEMP:  43;

WISC RAPIDS    CLEAR     40  28  62 S5        30.01R
6HR MIN TEMP:  39; 6HR MAX TEMP:  44;

CAMP DOUGLAS   NOT AVBL
$$

WIZ011>013-019>022-031-037>040-048>050-280100-
NORTHEAST WISCONSIN

CITY           SKY/WX    TMP DP  RH WIND       PRES   REMARKS
ANTIGO         CLEAR     34  20  57 S10       29.98S WCI  26
SHAWANO        CLEAR     39  26  61 SE5       30.03F
6HR MIN TEMP:  39; 6HR MAX TEMP:  44;

OCONTO         CLEAR     35  28  74 S6        30.06S WCI  30
STURGEON BAY   CLOUDY    35  30  82 S10       30.07S WCI  27
6HR MIN TEMP:  35; 6HR MAX TEMP:  38;

GREEN BAY      PTCLDY    36  31  82 SE7       30.05F WCI  30
6HR MIN TEMP:  36; 6HR MAX TEMP:  40;

MANITOWOC      NOT AVBL
APPLETON       PTCLDY    36  27  69 SE7       30.02F WCI  30
CLINTONVILLE   CLEAR     36  28  75 SE6       30.03S WCI  31
OSHKOSH        CLOUDY    37  30  75 E3        30.03S
6HR MIN TEMP:  37; 6HR MAX TEMP:  41;

$$

WIZ032>034-041-042-053>061-280100-
SOUTHWEST WISCONSIN

CITY           SKY/WX    TMP DP  RH WIND       PRES   REMARKS
LA CROSSE      CLEAR     43  30  60 SE7       29.96F
6HR MIN TEMP:  41; 6HR MAX TEMP:  47;

SPARTA         CLEAR     42  31  63 S6        29.99F
VIROQUA        CLEAR     41  32  69 SE7       29.97F
BOSCOBEL       CLOUDY    44  33  65 E3        29.98F
6HR MIN TEMP:  43; 6HR MAX TEMP:  51;

PRAIRIE DU CHI PTCLDY    47  32  55 E6        29.97F
PLATTEVILLE    CLOUDY    44  34  65 S6        29.99F
$$

WIZ056-057-062-063-064-067-068-280100-
SOUTH CENTRAL WISCONSIN

CITY           SKY/WX    TMP DP  RH WIND       PRES   REMARKS
REEDSBURG      CLEAR     43  32  66 CALM      30.00S
6HR MIN TEMP:  39; 6HR MAX TEMP:  46;

BARABOO/DELLS  PTCLDY    42  31  64 SW3       30.00S
LONE ROCK      NOT AVBL
MINERAL POINT  CLOUDY    45  34  65 S6        29.99F
MADISON        CLOUDY    45  30  55 S5        30.01S
6HR MIN TEMP:  39; 6HR MAX TEMP:  49;

MIDDLETON      CLOUDY    46  32  57 S6        30.02S
WATERTOWN      CLOUDY    43  33  67 S6        30.03R
MONROE         CLOUDY    45  32  61 S6        30.01S
JANESVILLE     CLOUDY    48  30  49 S5        30.03R
$$

WIZ051-052-058>065-066-070>072-280100-
SOUTHEAST WISCONSIN

CITY           SKY/WX    TMP DP  RH WIND       PRES   REMARKS
MILWAUKEE      CLOUDY    43  32  65 S9        30.06S
6HR MIN TEMP:  43; 6HR MAX TEMP:  47;

WAUKESHA       PTCLDY    43  30  61 S9        30.05S
MILWAUKEE/TIMM CLEAR     45  30  57 SE6       30.05F
RACINE         CLOUDY    40  33  76 S10       30.08F WCI  33
6HR MIN TEMP:  40; 6HR MAX TEMP:  45;

KENOSHA        PTCLDY    40  33  76 SE9       30.07S WCI  34
6HR MIN TEMP:  40; 6HR MAX TEMP:  50;

FOND DU LAC    CLOUDY    40  29  64 SE6       30.03S
6HR MIN TEMP:  39; 6HR MAX TEMP:  43;

SHEBOYGAN      CLEAR     37  32  82 S5        30.05F WCI  33
6HR MIN TEMP:  36; 6HR MAX TEMP:  38;

WEST BEND      CLOUDY    39  32  75 SE5       30.04S
JUNEAU         CLOUDY    43  31  64 S8        30.04R
$$

LSZ147-162-280100-
LAKE SUPERIOR

STATION/POSITION TIME  TEMP    WIND        PRES    WAVE
                       AIR SEA DIR/SP/G            HT/PER
                 (UTC) (F)     (DEG/KT/KT) (MB)    (FT/S)
DEVILS ISLAND    2300   29      50/ 10/ 11 1014.9F
PORT WING        2340   29      50/  8/ 10 1013.2S
SAXON HARBOR     2330   30      80/  3/  7 1013.5R
$$

LMZ867-665-643>646-280100-
LAKE MICHIGAN

STATION/POSITION TIME  TEMP    WIND        PRES    WAVE
                       AIR SEA DIR/SP/G            HT/PER
                 (UTC) (F)     (DEG/KT/KT) (MB)    (FT/S)
CHAMBERS ISLAND  2340   35     150/  5/ 10 1017.6S
NORTHPORT PIER   2340   35     170/  5/  9 1017.9S
SISTER BAY       2250          180/ 17/ 20   N/A
KEWAUNEE LAKESHO 2330   36     190/  7/  8 1018.0S
SHEBOYGAN LAKESH 2300   37     180/ 11/ 12 1018.6F
PORT WASHINGTON  2340   38     180/  6/  8 1018.6F
MILWAUKEE LAKESH 2330   39     150/ 16/ 17   N/A
KENOSHA   LAKESH 2300   38     180/  8/ 11 1018.6
$$

TC  - TEMPERATURE IN CELSIUS
VSB - VISIBILITY IN STATUTE MILES
WCI - WIND CHILL INDEX
HX  - HEAT INDEX





USA.gov is the U.S. government's official web portal to all federal, state and local government web resources and services.